Regional Weather Roundup
Issued by NWS Bismarck, ND

Home | Current Version | Previous Version | Text Only | Print | Product List | Glossary On
Versions: 1 2 3 4 5 6 7 8 9 10 11 12 13 14 15 16 17 18 19 20 21 22 23 24 25 26 27 28 29 30 31 32 33 34 35 36 37 38 39 40 41 42 43 44 45 46 47 48 49 50
868
ASUS43 KBIS 281610
RWRBIS

NWR BROADCAST TEXT
NATIONAL WEATHER SERVICE BISMARCK ND
1100 AM CDT TUE MAR 28 2017

NOTE: "FAIR" INDICATES FEW OR NO CLOUDS BELOW 12,000 FEET WITH NO
SIGNIFICANT WEATHER AND/OR OBSTRUCTIONS TO VISIBILITY.


CITY           SKY/WX    TMP DP  RH WIND       PRES   REMARKS
WILLISTON      CLOUDY    41  36  82 E7        30.08R
MINOT          CLOUDY    37  37 100 SE10      30.12S FOG
MINOT AFB      FOG       35  35  99 SE10      30.12R VSB 3/4
BISMARCK       CLOUDY    38  36  92 E7        30.14R FOG
DICKINSON      PTSUNNY   38  34  85 E7        30.06R
GARRISON         N/A     34  34 100 E7        30.12R
HETTINGER ARPT FAIR      49  37  63 SE10      30.08R
JAMESTOWN      CLOUDY    37  36  96 CALM      30.15R
HAZEN          FOG       34  36 100 NE5       30.15R VSB 1
LINTON           N/A     45  45 100 SE8       30.13R
STANLEY        CLOUDY    36  36 100 SE9       30.12R FOG
TIOGA          CLOUDY    36  36 100 E13       30.08F FOG
WATFORD CITY   PTSUNNY   41  41 100 SE12      30.06S
$$

CITY           SKY/WX    TMP DP  RH WIND       PRES   REMARKS
GRAND FORKS    FAIR      42  35  76 NE7       30.19R
GRAND FORKS AF FAIR      40  35  82 N7        30.19R
DEVILS LAKE    NOT AVBL
FARGO          CLOUDY    37  32  82 CALM      30.17S FOG
CAVALIER       FAIR      34  30  86 N13       30.22S
GRAFTON        PTSUNNY   37  36  93 N13       30.22S
GWINNER        FOG       37  37 100 MISG      30.16S VSB 3/4
LANGDON        PTSUNNY   37  34  87 NE12      30.17F
ROLLA          PTSUNNY   32  32 100 NE10      30.18S
$$

CITY           SKY/WX    TMP DP  RH WIND       PRES   REMARKS
ABERDEEN       FAIR      43  34  70 VRB3      30.16R
MOBRIDGE       FAIR      47  37  68 E8        30.08R
BUFFALO          N/A     47  38  71 E7        29.98R
RAPID CITY     LGT RAIN  41  38  89 SE8       30.02R
GLASGOW        FAIR      37  33  85 SE7       30.08S
SIDNEY         FAIR      41  38  89 NW7       30.07R
WOLF POINT     CLOUDY    38  35  89 N3        30.10R FOG
GLENDIVE       FAIR      44  39  82 NW6       30.07R
MILES CITY     LGT RAIN  46  38  73 NW16      30.07R
BAKER          FAIR      49  33  54 S9        30.06R
$$

CITY           SKY/WX    TMP DP  RH WIND       PRES   REMARKS
BILLINGS       PTSUNNY   42  33  70 W6        30.14R
GREAT FALLS    FAIR      43  27  53 SW20      30.11R
REGINA         CLOUDY    36  34  93 SE17      30.11S
ESTEVAN        CLOUDY    34  32  93 E13G20    30.11S FOG
$$





USA.gov is the U.S. government's official web portal to all federal, state and local government web resources and services.